Regional Weather Roundup
Issued by NWS Raleigh/Durham, NC

Home | Current Version | Previous Version | Text Only | Print | Product List | Glossary On
Versions: 1 2 3 4 5 6 7 8 9 10 11 12 13 14 15 16 17 18 19 20 21 22 23 24 25 26 27 28 29 30 31 32 33 34 35 36 37 38 39 40 41 42 43 44 45 46 47 48 49 50
000
ASUS42 KRAH 240510
RWRRAH
NORTH CAROLINA WEATHER ROUNDUP
NATIONAL WEATHER SERVICE RALEIGH NC
1200 AM EST MON NOV 24 2014

NOTE: "FAIR" INDICATES FEW OR NO CLOUDS BELOW 12,000 FEET WITH NO
SIGNIFICANT WEATHER AND/OR OBSTRUCTIONS TO VISIBILITY.

NCZ001-053-055-056-065-067-240600-
WESTERN NORTH CAROLINA

CITY           SKY/WX    TMP DP  RH WIND       PRES   REMARKS
ASHEVILLE      CLOUDY    55  52  89 S15G23    29.72S
JEFFERSON      CLOUDY    50  50  99 S6        29.70S
MORGANTON      FOG       47  47 100 CALM      29.77F VSB 3/4
HICKORY        CLOUDY    49  48  97 CALM      29.71F
RUTHERFORDTON  CLOUDY    48  48 100 S8        29.74S
MOUNT AIRY     CLOUDY    52  50  92 CALM      29.72F FOG
BOONE          LGT RAIN  49  49 100 SW5       29.73F
$$

NCZ021-022-025-041-071-084-088-240600-
CENTRAL NORTH CAROLINA

CITY           SKY/WX    TMP DP  RH WIND       PRES   REMARKS
CHARLOTTE      CLOUDY    64  59  82 SW18G24   29.73F
GREENSBORO     CLOUDY    63  61  93 S13G20    29.69F
WINSTON-SALEM  CLOUDY    63  59  87 S10G20    29.71F
RALEIGH-DURHAM LGT RAIN  65  61  87 S10       29.76F
FORT BRAGG     CLOUDY    65  64  96 SE6       29.75F
FAYETTEVILLE   CLOUDY    66  64  93 S6        29.76F
BURLINGTON     CLOUDY    64  60  87 S8        29.71F
LAURINBURG     CLOUDY    65  63  93 S7        29.75F
$$

NCZ011-015-027-028-043-044-047-080-103-240600-
NORTHEASTERN NORTH CAROLINA

CITY           SKY/WX    TMP DP  RH WIND       PRES   REMARKS
ROCKY MT-WILSO HVY RAIN  65  65 100 S14G20    29.82R FOG
GREENVILLE     LGT RAIN  64  64 100 S10G17    29.82F
WASHINGTON     CLOUDY    65  64  94 SE14G21   29.81F
ELIZABETH CITY CLOUDY    66  61  84 S13       29.88F
MANTEO         LGT RAIN  64  61  91 S18G26    29.90F
CAPE HATTERAS  CLOUDY    68  64  87 S28G40    29.90F
$$

NCZ078-087-090-091-093-098-101-240600-
SOUTHEASTERN NORTH CAROLINA

CITY           SKY/WX    TMP DP  RH WIND       PRES   REMARKS
LUMBERTON      CLOUDY    66  64  93 SE5       29.75F
GOLDSBORO      LGT RAIN  68  66  94 S12G30    29.80S
KINSTON        RAIN      67  66  96 S16G22    29.82F
KENANSVILLE    LGT RAIN  67  66  96 SE7       29.85R
NEW BERN       HVY RAIN  70  66  87 S18G26    29.88S FOG
CHERRY POINT   TSTM      69  66  90 S23G30    29.87F FOG
BEAUFORT       LGT RAIN  67  65  93 S24G31    29.85F
JACKSONVILLE   RAIN      68  65  90 S20G35    29.85F FOG
WILMINGTON     HVY RAIN  67  65  93 W12       29.87R VSB 3/4
$$



USA.gov is the U.S. government's official web portal to all federal, state and local government web resources and services.